Location: Unspecified
(33.6682°S, 0.0000°E)
Time: 05:50:37
(UTC+00:00)

Vanguard 2 Rocket - Pass Details

Date: 22 June 2019
Orbit: 553 x 3327 km, 32.9° (Epoch: 21 August)

Event Time Altitude Azimuth Distance (km) Brightness Sun altitude
Rises 13:36:39 0° 260° (W) 4,548 10.7 28.6°
Reaches altitude 10° 13:40:26 10° 263° (W) 3,133 10.0 28.3°
Maximum altitude 13:47:16 52° 337° (NNW) 1,007 8.6 27.6°
Drops below altitude 10° 13:51:40 10° 54° (NE) 2,033 8.9 27.2°
Sets 13:53:39 0° 59° (ENE) 2,821 9.5 27.0°
